GFSMA_sfc_rhum_225.txt.gz
RH
99 99 99 99 99 99 98 98 98 96 95 92 87 82 75 68 75 78 82 83 87 90 84 77 80 86 89 90 92 91 89 88 87 87 87 89 90 90 89 87 84 83 83
98 98 99 99 99 99 99 98 98 98 97 96 95 93 84 86 88 87 84 86 85 87 87 84 80 78 81 80 85 89 90 89 88 88 88 89 90 90 90 88 86 85 86
97 97 98 99 98 99 98 98 98 98 99 97 93 95 95 94 94 94 95 96 94 90 90 86 85 83 81 79 82 82 82 84 86 88 88 87 90 91 90 90 86 80 83
95 98 98 98 98 99 98 99 98 99 98 97 96 97 97 96 95 95 96 95 96 92 95 92 89 87 86 82 79 79 80 81 82 83 85 86 86 88 90 89 87 82 82
95 96 98 98 98 98 99 99 99 97 98 98 98 97 97 97 95 90 94 94 94 96 96 92 89 90 89 86 82 78 76 78 78 80 80 80 81 82 82 86 89 84 82
95 96 98 98 98 99 99 99 97 98 97 96 94 97 96 93 94 96 95 92 96 95 95 95 96 96 91 87 82 76 73 69 68 72 67 73 78 81 83 82 82 86 85
95 95 98 98 98 98 96 96 96 97 98 78 70 73 70 70 74 77 91 96 85 82 84 89 90 93 93 87 80 73 70 68 69 70 71 71 76 79 81 82 83 80 86
95 96 96 97 97 98 98 98 89 83 83 81 77 78 60 65 68 66 66 57 61 68 65 62 73 73 80 92 89 78 76 72 70 74 75 79 78 76 79 82 78 77 82
95 95 96 96 97 92 94 86 75 75 77 81 77 63 69 64 88 72 66 69 70 75 74 76 71 71 77 89 89 87 82 82 78 70 74 78 79 80 75 76 78 80 81
97 98 97 94 87 81 76 69 72 73 70 74 80 79 83 81 80 82 81 72 73 73 77 79 76 72 73 78 80 80 84 90 85 71 67 67 75 80 77 74 74 76 78
87 83 83 78 74 75 72 75 75 73 76 84 83 87 89 94 93 95 98 93 79 76 80 77 76 73 75 81 82 86 85 89 84 77 73 74 73 76 79 74 72 70 76
77 72 68 69 69 70 73 76 77 76 85 88 84 93 87 94 97 97 97 90 85 75 85 84 75 78 76 85 78 82 86 88 86 77 72 70 72 73 79 80 76 70 71
74 69 67 72 72 78 80 80 82 87 90 92 89 94 95 94 96 97 97 91 90 86 83 86 85 88 75 94 88 76 72 81 85 77 72 72 70 75 84 90 85 79 79
69 71 75 71 77 77 82 82 87 91 91 94 91 89 93 92 93 94 95 98 91 91 88 83 75 82 89 84 74 77 80 81 76 78 80 79 74 74 77 91 93 90 86
71 71 72 78 80 80 80 83 85 90 86 91 92 92 94 94 93 95 96 98 92 93 86 83 86 79 75 84 84 77 79 78 80 83 83 83 80 78 83 85 94 95 92
69 76 79 78 79 81 84 84 91 86 90 90 93 90 92 92 90 94 96 96 97 95 94 86 76 72 71 69 71 75 76 75 74 84 85 86 87 85 82 90 96 94 94
74 78 78 82 83 90 90 90 91 86 90 91 90 89 89 91 95 96 96 96 97 97 96 85 78 74 75 82 81 80 80 81 80 82 85 87 90 87 85 90 98 98 93
80 81 83 83 87 87 90 91 87 89 90 90 92 91 92 83 93 95 97 97 93 88 94 96 87 87 85 80 84 87 84 79 83 80 86 88 88 86 87 93 99 98 94
88 89 83 87 86 88 90 89 92 92 92 91 92 92 92 94 96 96 93 93 94 84 89 94 94 88 90 90 92 90 90 90 83 78 81 84 86 87 88 94 99 98 97
85 85 87 87 89 91 88 93 93 93 93 92 92 92 94 95 96 95 93 93 90 94 94 96 96 96 96 93 95 98 98 95 96 88 88 89 92 93 95 98 99 99 98
83 85 87 88 89 89 89 94 93 94 94 94 92 93 92 88 82 91 95 95 96 97 98 98 97 98 98 98 98 98 98 98 98 99 97 95 96 97 98 99 98 99 98
86 88 88 89 93 90 89 89 92 95 94 94 96 95 94 89 89 90 88 87 87 97 97 98 98 98 97 98 98 98 99 99 99 99 99 98 96 98 98 98 99 100 100
91 93 94 93 96 96 90 89 89 95 96 96 96 97 96 88 91 91 87 87 83 90 93 98 98 98 98 98 98 99 99 99 99 99 99 98 97 99 97 97 99 100 100
99 98 99 97 98 98 91 89 88 95 96 95 95 95 96 95 93 94 95 89 88 91 97 98 98 98 98 98 99 99 99 100 100 99 99 99 98 98 96 98 98 100 98
100 100 99 98 98 99 91 89 90 94 97 95 99 97 97 95 90 89 96 96 92 93 92 96 95 97 98 99 99 100 100 100 98 98 99 98 99 98 95 98 98 98 98
99 98 99 98 98 100 92 90 91 96 96 98 97 96 91 94 91 86 94 97 98 98 98 99 100 99 99 99 98 99 100 100 99 99 100 98 98 99 98 98 98 99 99

GFSMA_sfc_rhum_228.txt.gz
RH
99 99 99 99 99 99 98 97 96 94 93 91 89 85 81 76 71 78 82 84 84 82 78 75 74 80 83 86 89 90 90 90 89 88 88 89 89 88 88 88 87 85 83
98 98 99 99 99 99 99 98 97 96 95 94 93 92 90 83 82 88 86 85 88 87 83 78 76 76 76 79 84 86 86 85 86 87 88 89 90 89 89 89 88 87 86
97 97 98 99 98 99 98 98 97 97 98 96 96 95 94 92 92 91 91 91 91 94 92 88 85 80 77 76 78 83 84 86 88 87 86 87 88 90 91 90 89 88 87
96 98 98 98 99 99 99 99 99 99 99 99 98 96 96 94 93 92 91 89 89 87 92 90 86 83 81 79 77 76 75 80 84 84 85 86 86 86 86 86 89 90 88
96 97 98 98 98 99 99 99 99 98 99 98 98 97 97 96 93 86 88 88 89 90 90 89 87 85 83 74 66 64 64 67 74 76 76 81 83 84 87 87 86 85 84
95 96 98 98 98 99 99 99 98 99 97 98 98 96 92 91 87 87 86 84 88 89 87 80 85 82 82 72 70 66 64 63 65 70 74 76 79 82 81 85 87 85 85
96 96 97 98 98 98 97 98 98 98 98 82 79 75 67 67 67 68 80 89 67 70 72 66 70 72 72 74 73 68 67 66 66 65 67 69 73 79 83 82 80 82 84
96 96 96 97 97 97 98 99 95 94 88 78 76 69 70 57 63 68 68 62 66 69 65 66 72 70 73 79 83 70 68 66 64 65 64 66 68 72 77 81 82 78 78
95 95 96 96 97 98 98 98 93 89 84 76 73 63 61 55 78 67 68 71 73 75 76 74 73 73 76 83 83 83 76 78 74 70 68 67 67 68 71 77 80 78 78
96 95 96 96 97 98 96 94 84 76 74 76 75 72 78 72 63 62 72 74 76 73 78 79 76 73 75 80 79 79 83 86 81 74 71 70 69 69 70 73 76 77 75
97 98 98 98 98 96 87 82 75 75 68 74 71 84 80 83 86 84 84 82 80 77 75 79 82 79 73 83 86 86 85 82 78 71 72 72 70 70 68 71 73 77 76
99 98 96 96 90 85 78 76 80 78 77 78 79 81 82 83 91 93 96 93 88 79 80 75 74 75 82 83 71 73 75 77 78 72 73 71 70 69 69 67 70 79 81
94 95 90 86 81 76 75 76 77 84 80 83 86 93 92 91 93 94 96 92 93 84 78 78 79 82 69 86 81 71 72 78 78 74 74 74 75 74 72 70 71 73 87
91 82 84 81 79 78 77 76 80 86 90 91 92 89 91 91 90 90 90 93 91 87 84 82 75 80 85 80 73 76 76 79 79 77 72 74 75 76 76 75 76 76 84
87 83 80 78 80 81 84 84 84 86 86 90 92 91 90 92 91 91 91 92 91 93 84 80 78 78 73 76 74 73 76 76 80 81 83 79 78 79 80 80 78 75 82
81 82 80 79 80 83 84 87 89 86 88 90 90 89 90 90 88 90 91 91 93 90 90 82 76 72 70 66 70 75 77 76 80 84 85 84 83 83 84 82 79 77 80
83 78 79 80 84 85 84 84 87 89 90 91 90 89 89 88 90 90 90 91 92 94 96 83 75 74 76 81 79 78 78 81 85 83 85 85 86 88 89 90 87 84 86
84 82 82 85 85 86 86 86 88 87 91 92 90 90 91 82 90 91 94 93 94 84 94 94 82 84 85 82 84 87 82 78 84 81 86 86 87 88 88 89 89 89 93
85 84 85 88 89 92 89 89 87 88 91 91 90 90 90 91 93 94 93 95 94 82 87 93 94 88 90 90 92 90 90 90 82 79 85 90 90 90 92 94 96 92 97
87 86 87 90 92 93 87 88 89 93 93 91 92 91 91 93 94 94 92 92 88 92 90 93 96 97 97 93 95 98 98 96 96 85 89 87 87 87 91 95 96 95 98
86 88 91 90 90 86 86 92 89 93 89 94 93 92 93 87 79 90 93 93 93 93 95 97 97 98 98 98 99 99 98 98 98 99 94 91 92 91 90 92 94 98 99
90 88 86 90 92 89 91 90 87 90 90 92 94 94 93 87 85 86 85 87 90 93 97 98 98 98 98 98 98 99 99 99 99 100 99 98 91 95 92 93 94 98 99
90 90 91 90 94 92 90 89 88 90 94 95 96 95 93 91 86 88 85 89 85 89 92 98 98 98 98 98 99 99 99 98 98 99 99 100 95 96 92 89 96 99 100
99 95 97 97 96 96 90 90 90 94 96 96 96 94 94 93 91 90 93 91 88 88 92 95 98 98 98 98 98 98 98 99 100 99 98 97 100 99 94 94 96 98 98
98 97 97 99 100 99 90 90 93 96 97 96 100 98 95 95 88 88 93 95 94 93 90 90 93 95 98 98 98 100 100 100 99 100 100 100 100 99 97 96 96 95 98
100 98 100 100 95 97 90 89 90 94 96 97 98 96 91 93 91 86 92 94 98 97 99 100 100 99 99 100 99 99 99 99 99 100 100 100 97 98 97 95 97 98 97

GFSMA_sfc_rhum_231.txt.gz
RH
82 76 75 77 67 66 62 63 61 60 64 64 64 62 58 58 56 47 52 83 84 75 70 69 70 72 77 82 85 87 89 89 90 89 90 91 91 90 88 88 88 88 88
81 78 80 77 78 75 69 64 64 66 65 68 67 68 66 64 62 61 58 60 89 88 84 80 79 78 76 74 81 85 87 88 88 87 88 90 91 92 91 90 89 88 87
79 76 74 80 73 80 79 79 77 75 72 70 72 70 69 71 66 66 62 63 65 92 91 84 78 76 76 75 75 79 82 84 86 88 88 90 90 91 92 92 91 90 89
75 76 71 76 78 81 81 83 79 76 75 74 73 70 70 72 73 73 67 65 59 54 73 86 82 78 72 72 69 65 64 71 74 77 80 84 85 87 88 89 90 91 92
78 76 70 75 80 79 83 81 83 82 79 79 77 73 74 74 72 65 68 68 67 58 49 78 78 76 69 64 62 60 58 59 62 66 72 75 78 82 84 86 87 88 89
79 77 72 78 80 79 81 81 84 83 79 77 75 77 78 75 72 68 60 54 52 59 51 45 41 42 71 68 67 65 62 63 65 65 65 67 68 72 75 80 84 85 86
80 79 76 79 79 75 79 84 83 92 94 80 80 74 66 62 59 48 46 46 48 43 47 43 40 39 40 67 67 66 63 63 64 64 64 65 67 68 69 71 76 84 84
79 78 75 73 74 70 78 85 89 94 89 79 83 68 74 58 40 46 44 39 47 40 41 45 51 49 46 44 58 69 70 69 68 67 66 67 67 67 67 68 70 73 82
76 78 76 74 76 75 81 90 94 89 89 75 70 72 69 66 44 44 51 45 52 46 46 45 47 47 50 53 60 64 76 80 74 71 70 69 68 67 67 67 67 68 72
75 76 78 78 79 76 82 87 91 91 83 78 73 65 67 58 55 39 48 52 54 52 54 48 46 47 51 49 64 74 78 78 72 70 70 69 69 68 68 68 67 70 72
81 80 82 81 81 80 83 86 90 86 79 74 65 70 73 66 60 45 36 39 53 54 52 53 52 48 49 53 50 59 73 78 74 72 71 72 71 71 69 68 66 65 66
88 86 84 84 83 84 87 85 85 84 76 70 60 59 63 50 48 49 49 51 52 48 54 51 50 48 51 54 57 70 74 78 77 75 73 73 75 77 74 73 71 69 67
93 91 88 89 85 87 87 83 82 77 75 66 70 72 54 62 58 53 55 47 54 48 50 51 51 50 50 59 58 69 71 77 78 75 76 75 74 74 75 76 76 73 70
83 85 87 85 83 83 82 82 88 86 81 79 77 69 73 63 61 58 53 59 52 54 51 57 47 53 54 55 62 71 63 75 78 79 76 77 78 75 75 75 75 75 76
83 86 85 84 82 80 84 84 84 83 76 82 81 87 65 63 63 60 59 60 62 57 47 48 50 53 54 56 60 62 63 71 80 82 81 81 81 79 78 77 77 75 75
84 86 87 82 79 81 81 77 82 75 81 80 79 67 65 63 63 61 63 59 61 61 60 50 50 58 59 53 57 63 65 73 79 82 84 84 85 83 83 82 81 79 77
82 82 81 81 78 77 77 79 75 75 86 87 68 74 68 67 61 60 62 59 60 64 77 61 57 59 66 68 65 64 68 72 79 81 82 85 87 88 90 90 89 87 86
81 79 77 77 75 76 82 83 81 86 77 75 74 69 69 59 69 67 65 68 64 64 73 81 69 70 74 75 73 82 77 72 79 77 81 85 88 91 90 90 93 94 95
81 78 77 78 77 82 81 83 88 91 86 76 68 67 67 67 69 69 69 71 70 62 74 86 84 74 80 80 88 88 89 90 77 77 83 88 86 87 87 89 90 94 95
83 80 79 80 83 83 78 90 89 86 86 70 74 68 67 68 69 71 69 71 69 80 82 85 85 91 90 86 94 98 98 96 88 79 81 79 83 82 80 85 87 89 94
82 79 78 80 84 86 87 88 81 82 73 74 76 71 76 75 81 81 73 78 79 83 85 88 95 97 99 100 100 100 98 98 94 95 93 76 74 73 78 84 85 92 95
83 82 79 79 86 82 92 86 76 76 75 77 78 85 76 82 83 84 83 84 82 82 86 90 95 99 100 99 99 98 99 100 100 99 98 94 74 81 86 88 92 95 98
88 86 85 86 88 88 90 88 84 71 81 75 89 82 81 75 79 72 80 85 87 86 89 89 97 96 100 97 98 99 99 99 99 98 94 100 87 93 84 85 90 95 97
98 94 99 95 92 93 90 89 86 89 81 83 86 87 84 78 78 75 74 76 75 79 83 85 92 95 96 97 97 96 98 99 100 97 90 100 100 100 88 90 88 95 97
100 100 100 100 100 99 91 90 89 94 100 100 100 92 84 84 85 85 81 95 94 100 86 87 90 94 97 98 98 100 100 100 100 100 100 100 100 100 100 100 92 92 96
100 100 100 100 97 100 90 90 82 92 100 98 96 92 90 86 89 84 78 85 100 100 100 100 100 99 99 100 99 99 100 100 100 100 100 100 100 100 100 100 95 94 95

GFSMA_sfc_rhum_234.txt.gz
RH
54 47 46 42 44 41 44 44 41 44 47 47 48 49 46 43 42 37 40 76 74 70 68 67 68 70 72 77 82 84 85 87 89 90 91 92 92 91 91 90 89 89 88
54 48 49 47 46 43 42 43 45 47 49 49 53 54 51 48 50 49 44 56 81 84 81 77 75 74 72 71 75 78 79 82 84 85 88 90 91 93 93 93 92 91 89
56 54 48 48 47 48 50 50 53 54 52 53 54 53 53 56 54 53 52 51 61 93 84 76 74 74 72 70 71 73 75 78 78 78 81 84 88 89 90 91 93 93 92
58 60 48 49 48 51 52 51 53 55 54 54 54 53 54 58 60 60 60 60 53 48 76 80 78 69 63 60 58 58 58 62 67 69 74 75 77 80 83 85 87 89 90
62 58 49 48 56 52 53 52 54 57 59 64 59 64 66 62 59 53 58 59 60 56 45 82 71 67 61 60 60 59 58 59 62 65 66 67 68 70 72 75 78 83 85
63 62 51 54 58 52 53 53 58 60 62 68 63 58 63 60 58 55 53 52 50 51 46 38 33 37 65 62 62 62 60 60 60 63 64 64 66 68 69 70 70 71 75
64 64 54 57 61 55 55 59 59 72 73 68 72 67 61 60 61 52 47 44 43 41 37 30 26 26 29 60 59 64 64 65 66 65 66 67 67 68 68 68 68 68 69
63 61 59 54 61 54 60 63 64 82 79 70 77 64 61 54 49 47 42 38 39 27 28 30 35 34 32 31 50 63 70 73 72 69 68 69 69 68 68 67 67 68 68
61 64 61 56 59 59 56 63 65 74 73 80 74 61 69 57 45 35 40 32 40 32 31 31 33 34 37 38 47 55 75 74 71 68 68 68 69 68 68 66 66 67 67
61 60 62 61 62 58 60 64 66 67 67 72 74 64 58 55 58 61 38 38 36 36 37 34 34 36 37 36 54 76 73 74 72 71 71 71 70 70 70 69 68 68 67
63 60 64 65 66 63 65 68 76 79 72 73 74 69 65 61 65 65 71 39 36 33 35 37 37 36 37 42 42 54 72 77 74 74 74 74 73 72 76 76 76 74 72
64 64 62 65 68 68 67 69 78 78 72 71 73 64 63 61 60 58 53 42 32 33 36 38 38 37 39 40 45 69 74 77 76 72 73 76 77 76 75 75 77 77 77
76 70 68 73 71 69 71 77 79 76 77 71 74 69 57 54 48 43 38 33 33 30 37 38 39 39 37 43 46 68 66 76 77 73 75 75 77 79 78 76 76 77 77
72 77 81 77 74 76 79 78 79 81 82 78 77 69 56 50 45 40 37 35 36 36 39 44 37 39 41 43 54 69 52 74 81 79 77 76 76 77 79 75 75 76 77
69 84 87 84 79 76 78 82 82 86 83 83 79 72 55 58 57 60 40 39 39 38 34 37 40 40 42 46 53 54 56 70 77 77 78 80 76 77 79 80 81 80 77
78 77 90 86 80 77 79 81 78 78 80 75 64 65 59 55 58 46 50 44 44 44 43 35 38 44 50 45 51 57 57 71 75 80 82 83 81 80 83 84 85 84 86
82 76 84 81 78 77 77 78 75 75 72 68 68 64 62 68 50 46 49 45 44 46 50 44 42 46 57 59 57 57 57 59 59 76 81 83 84 86 88 88 84 86 88
85 76 80 80 76 74 78 77 77 74 73 78 77 68 67 56 56 55 50 53 49 49 52 59 54 53 60 63 64 65 58 52 62 66 81 84 86 88 86 87 88 87 88
86 84 83 82 77 79 79 81 78 81 78 80 71 74 73 59 58 54 56 56 52 46 53 66 70 61 65 70 71 69 68 73 62 75 77 79 81 83 83 87 85 86 88
85 88 85 84 79 76 75 76 78 81 73 81 85 72 55 56 55 57 55 57 54 60 64 72 77 80 82 78 83 88 91 86 84 70 72 76 82 80 80 82 85 88 91
85 86 88 84 77 72 68 76 74 86 77 82 75 58 60 62 79 72 55 60 62 66 72 79 84 88 91 95 98 96 95 97 95 85 94 72 59 66 66 73 81 90 93
91 89 86 83 82 74 91 84 77 73 75 80 79 66 75 80 82 86 82 79 76 68 76 77 83 93 90 88 97 98 99 100 100 98 99 93 70 75 72 69 86 90 94
93 92 89 85 84 85 89 86 83 75 80 75 76 66 61 62 78 68 81 82 83 84 85 76 85 84 95 92 97 99 97 97 98 90 90 100 86 92 76 71 86 90 93
98 95 94 91 91 88 88 85 83 82 80 76 73 76 68 71 71 70 62 66 68 70 76 76 81 80 86 90 95 94 96 98 98 93 88 100 100 100 89 84 85 88 91
100 100 99 99 100 97 88 86 88 98 100 100 99 83 72 74 84 81 73 91 87 100 80 83 88 91 94 98 98 99 100 100 100 100 100 100 100 100 100 100 94 87 89
100 100 100 100 99 100 88 88 80 87 96 98 94 84 84 77 89 84 75 83 100 100 100 100 100 99 100 99 96 89 95 99 100 100 100 100 100 100 100 100 100 97 94

GFSMA_sfc_rhum_237.txt.gz
RH
52 44 42 39 40 38 39 42 38 39 40 42 40 41 42 42 38 33 41 80 73 67 66 66 68 70 72 76 78 79 80 79 80 84 88 90 91 93 93 93 92 92 91
53 44 43 40 39 38 38 40 40 41 43 43 45 46 46 42 43 46 41 63 82 79 77 74 74 72 70 69 72 75 76 78 78 78 84 88 90 91 92 93 93 94 93
55 54 44 43 40 42 46 46 44 45 44 44 48 48 48 50 49 62 58 82 76 91 84 76 72 72 68 64 64 64 64 70 68 65 72 78 79 80 84 86 86 87 87
56 58 45 45 43 45 45 44 46 48 48 47 53 51 51 66 66 59 58 54 60 65 83 83 77 66 59 55 54 54 56 59 62 64 68 70 71 72 76 78 79 80 83
60 55 48 46 54 46 48 48 49 51 58 58 61 67 56 63 60 55 59 63 64 56 56 82 74 68 60 57 56 56 56 58 60 60 64 66 66 67 70 70 72 72 72
60 60 51 54 53 49 49 50 55 50 50 57 52 54 67 65 70 68 60 59 66 59 52 48 46 45 69 60 56 56 60 61 63 64 64 66 68 68 69 70 69 69 69
62 63 55 55 55 54 55 59 56 60 60 71 72 67 63 65 70 61 46 45 46 46 46 36 30 24 42 68 62 61 61 66 68 68 67 67 68 68 69 69 68 68 67
62 61 61 54 58 54 62 61 64 59 66 67 70 63 70 59 55 51 48 45 49 38 30 32 31 32 32 30 49 68 73 70 67 66 66 66 66 68 68 68 68 67 66
59 63 63 58 58 60 58 65 65 66 72 77 71 60 62 59 60 46 51 41 43 36 30 28 32 32 34 36 45 70 74 72 70 70 70 70 70 70 69 69 69 68 68
58 59 62 63 61 60 62 64 61 65 72 74 79 67 63 56 52 56 43 43 42 39 40 33 31 34 35 36 55 74 72 73 71 71 73 73 72 73 72 73 74 76 75
61 58 63 65 66 61 65 65 68 71 69 69 73 69 69 63 62 63 68 52 51 40 31 34 37 38 35 38 41 63 74 76 72 70 70 72 72 75 78 74 76 72 74
60 64 62 67 67 65 67 67 70 74 74 72 66 65 67 70 73 69 71 70 58 44 42 38 41 38 38 39 44 69 74 74 76 71 71 74 74 78 77 78 74 73 72
63 69 68 70 66 67 66 68 72 75 77 76 75 68 63 62 61 67 68 62 48 36 35 38 40 39 35 42 46 66 64 75 79 75 74 75 78 76 76 79 76 73 73
62 66 69 67 68 67 68 70 69 74 79 79 81 74 70 62 56 52 48 56 47 39 38 46 39 39 40 42 54 67 51 84 78 78 73 74 75 75 76 76 80 81 80
57 69 69 70 69 68 70 73 73 80 82 89 85 76 64 59 62 53 50 45 55 39 38 43 42 41 41 44 56 53 56 72 75 80 79 77 77 78 78 80 79 82 81
62 70 78 72 74 74 77 78 85 88 88 80 73 73 74 65 60 49 52 52 43 54 41 32 35 38 45 44 52 55 57 70 73 77 80 84 81 81 82 80 78 78 82
70 76 77 82 80 82 85 89 87 86 84 80 81 76 69 60 56 61 65 53 61 47 49 44 39 42 53 57 56 56 55 54 54 77 83 84 86 85 85 87 84 82 84
79 76 80 87 89 89 90 86 87 80 81 77 78 73 66 56 66 61 72 61 52 48 50 53 48 50 56 57 60 63 54 48 57 67 80 84 83 84 86 86 87 84 86
84 82 88 87 93 92 91 89 85 79 76 74 75 72 65 63 62 56 55 55 52 45 51 57 62 57 61 65 69 70 68 70 58 68 73 76 79 81 85 84 86 85 86
91 86 90 91 92 92 90 88 81 78 78 76 80 73 68 64 57 64 56 58 54 55 56 62 67 73 76 76 83 90 89 80 78 65 65 74 80 79 79 81 81 84 88
88 80 89 93 93 91 88 86 82 83 82 84 85 73 75 67 82 74 53 57 56 60 64 70 79 86 90 98 94 92 92 86 84 80 85 72 63 66 67 74 75 86 89
91 87 94 94 93 90 96 96 86 83 76 80 78 71 82 87 87 86 82 86 79 62 67 69 76 88 86 88 92 93 99 99 99 93 94 92 73 79 76 71 85 86 89
96 97 97 95 94 91 96 95 93 77 77 79 73 82 69 62 80 72 81 79 77 78 82 78 77 79 86 83 92 98 96 94 91 89 95 96 88 94 83 70 85 86 88
99 98 98 96 94 94 96 92 90 83 83 82 80 81 67 77 72 68 62 64 65 71 76 68 71 76 83 85 90 93 95 98 95 97 91 98 98 100 89 82 83 84 86
100 100 98 97 98 98 95 92 90 94 100 100 91 77 73 77 87 80 69 90 86 100 76 80 84 88 90 95 96 97 100 96 96 100 100 100 100 100 100 100 92 84 86
100 100 100 100 99 100 94 94 88 93 98 100 93 84 83 81 87 82 82 88 100 100 100 100 100 98 98 98 87 90 92 92 93 99 100 99 100 100 100 100 100 98 94

GFSMA_sfc_rhum_240.txt.gz
RH
71 65 64 62 63 64 65 66 66 61 64 60 55 54 54 54 57 58 70 83 79 74 71 68 73 75 77 81 82 82 80 80 81 82 87 90 92 93 92 93 94 94 95
76 66 70 60 59 60 57 63 60 63 66 63 64 60 60 60 58 58 70 85 84 80 79 77 75 73 71 71 76 77 76 77 74 71 76 82 86 84 85 87 87 86 85
75 68 65 70 62 59 60 66 69 69 69 63 64 67 67 66 66 64 74 84 85 89 86 82 78 73 68 64 64 62 66 70 70 65 71 77 77 77 78 79 80 76 75
72 72 66 70 68 71 70 70 71 72 72 71 70 68 65 70 67 72 72 88 77 70 91 84 81 76 68 58 56 54 55 59 63 62 64 68 69 68 70 73 73 72 74
68 74 65 68 74 72 74 70 74 76 76 72 78 77 73 79 79 68 77 72 75 87 82 85 81 74 70 64 56 52 53 58 61 64 65 66 68 69 70 70 70 70 69
70 72 67 76 71 72 74 74 76 75 76 74 54 69 83 87 88 86 81 71 72 75 76 68 77 68 72 70 59 58 58 60 64 66 67 66 67 67 69 68 69 69 68
71 72 70 70 76 66 70 78 78 80 74 81 86 88 89 86 88 89 81 74 72 71 69 64 60 60 68 72 67 61 61 64 65 64 64 66 66 67 68 69 69 68 68
71 70 71 69 69 67 73 78 75 81 83 88 92 92 95 92 87 82 79 69 70 62 53 45 48 43 50 69 80 67 70 68 66 66 67 68 70 71 70 70 69 69 68
70 72 73 70 71 70 71 74 78 76 78 90 87 88 93 93 93 80 73 72 66 58 54 51 47 46 47 57 81 78 74 70 66 66 67 69 71 71 71 74 73 72 74
67 70 72 73 72 69 70 73 71 74 83 85 93 82 88 78 88 78 73 67 64 59 63 55 57 48 47 57 77 77 74 72 67 64 68 70 71 71 70 74 74 75 73
68 68 73 75 74 74 71 74 73 77 75 81 82 93 93 91 88 88 85 75 69 69 66 66 61 58 50 56 74 74 75 76 70 66 68 71 73 73 74 77 76 75 73
70 70 70 74 76 73 76 74 76 76 76 80 81 82 84 89 90 92 93 84 74 71 62 66 64 63 61 62 56 71 70 71 76 71 72 72 72 77 77 76 76 74 71
71 73 73 76 75 75 73 75 78 77 80 82 84 82 80 79 84 86 88 92 84 65 64 70 66 65 52 64 76 68 68 84 77 71 70 68 70 73 72 75 76 76 77
68 73 75 74 76 76 75 77 76 80 80 83 84 82 83 85 84 82 80 76 75 68 58 65 71 66 65 68 72 68 73 75 77 77 75 72 72 76 76 75 77 78 78
68 80 80 78 77 78 78 76 80 80 84 86 88 89 85 81 81 79 72 74 76 69 62 72 72 65 63 70 71 69 73 80 75 83 78 78 76 77 78 78 74 74 74
78 76 80 80 79 80 80 80 80 83 88 89 91 88 81 84 88 84 75 67 61 62 62 59 65 72 66 58 68 73 74 76 74 77 79 82 83 80 79 79 80 78 78
75 79 82 82 82 82 81 83 83 84 88 94 89 84 80 76 79 88 74 76 70 68 72 66 62 68 71 72 74 78 76 74 76 80 78 82 84 86 85 85 86 80 82
83 82 88 85 82 85 87 87 96 95 95 93 90 85 83 72 81 75 77 73 72 72 71 71 72 77 78 78 83 85 75 64 79 70 80 81 83 84 86 88 85 87 85
86 90 90 88 87 86 96 95 94 94 93 91 90 86 81 81 75 74 71 78 75 62 75 80 81 83 86 91 93 90 83 84 69 73 74 80 82 84 84 81 86 85 85
89 94 91 93 93 93 97 96 96 95 93 92 89 87 82 79 72 71 67 76 73 78 76 85 87 91 94 92 91 95 97 90 84 68 72 76 83 79 81 82 83 83 85
96 95 96 97 97 97 98 97 95 94 94 94 92 85 85 80 79 71 70 79 82 86 89 91 96 98 99 100 98 99 97 93 90 89 85 81 82 76 85 83 83 82 86
97 96 97 98 98 98 100 100 95 94 93 91 89 83 90 90 90 91 90 92 83 80 86 90 98 97 94 96 98 98 100 100 100 99 94 94 87 94 84 77 86 86 85
98 98 98 98 98 97 100 98 97 92 93 91 87 88 83 79 86 84 86 86 85 85 87 89 90 93 92 92 95 93 96 98 94 93 98 99 96 92 87 72 89 85 85
100 99 99 99 99 99 99 98 99 94 94 91 89 85 82 86 83 78 74 77 78 80 86 75 88 95 96 95 94 94 94 98 96 99 97 100 97 94 92 96 89 83 84
100 100 99 100 100 100 100 99 99 98 100 100 92 84 84 84 84 78 79 89 98 100 83 84 86 86 89 94 93 99 100 98 96 100 99 99 100 99 100 100 99 87 86
100 100 100 100 100 100 99 98 94 95 96 98 95 89 87 86 87 89 95 98 99 99 99 99 99 96 96 97 86 94 99 89 94 96 99 98 98 100 99 100 100 98 92

GFSMA_sfc_rhum_246.txt.gz
RH
96 97 98 99 99 99 98 98 97 94 90 83 76 69 66 64 63 70 83 85 84 83 83 79 82 86 90 91 90 87 82 80 78 75 76 83 80 78 77 77 76 76 76
90 91 96 97 98 96 97 95 92 91 87 81 74 71 67 69 65 69 73 84 87 85 84 84 84 82 83 83 83 81 79 72 68 69 74 76 74 74 73 73 74 75 74
88 84 90 92 89 88 90 92 88 88 85 77 76 73 73 70 74 69 69 79 86 88 87 86 85 85 81 78 76 73 71 69 68 65 68 71 70 71 73 73 72 73 72
83 81 83 85 85 85 82 80 86 87 85 84 82 81 76 75 75 84 73 80 76 74 88 90 88 85 81 74 66 64 64 66 64 68 67 69 68 68 68 68 69 70 69
78 80 76 83 84 81 81 77 87 82 89 89 84 87 87 86 83 74 82 78 77 81 78 90 89 87 81 76 65 60 59 63 65 66 65 64 64 66 68 70 71 70 70
75 77 78 84 82 78 81 79 78 85 86 81 69 74 93 88 92 85 80 78 87 89 87 87 85 88 84 77 69 56 60 65 66 63 63 64 65 67 70 71 71 70 71
73 77 75 79 78 79 74 76 75 83 88 90 93 93 94 94 96 97 95 92 93 91 89 86 88 81 80 79 72 63 64 67 65 63 62 63 65 69 70 70 70 71 71
74 70 74 76 71 73 86 84 77 94 78 94 92 96 95 93 98 95 97 91 94 96 90 87 83 73 76 83 83 72 69 68 64 59 59 62 66 70 70 70 71 70 69
73 73 72 76 74 78 76 80 80 76 78 96 92 92 97 97 96 97 96 96 96 98 94 83 77 67 71 85 86 84 80 73 61 56 58 62 67 71 71 71 72 70 71
79 74 72 74 80 77 77 76 76 76 77 85 97 84 91 93 96 94 91 97 96 89 87 80 69 65 71 88 87 85 80 74 65 59 60 63 67 69 69 70 70 70 72
82 80 77 77 78 81 77 78 79 82 77 73 82 96 96 95 90 92 95 91 82 79 76 68 64 69 81 87 90 85 81 76 69 64 63 65 67 66 67 70 69 69 71
84 84 81 80 78 78 80 82 82 84 78 77 76 79 81 83 86 95 93 90 89 81 82 73 69 69 82 85 77 81 81 74 74 67 63 65 66 67 69 72 72 70 71
79 83 84 84 83 80 78 81 87 82 84 82 79 83 79 80 89 92 92 88 87 88 82 83 77 78 74 83 78 79 77 83 77 71 68 69 68 70 72 72 74 72 72
72 70 83 80 82 82 84 84 87 88 82 84 80 81 80 82 82 92 88 90 92 82 84 82 92 80 87 87 83 81 84 84 80 77 77 74 70 73 73 73 74 73 71
78 81 81 87 85 85 86 88 90 88 88 86 86 83 87 82 92 91 90 90 86 91 90 95 92 90 90 85 86 79 76 83 86 84 78 74 73 75 75 74 76 76 70
92 92 91 89 85 85 88 91 90 90 92 91 89 90 92 85 93 94 92 89 94 90 93 93 92 88 81 71 79 77 80 83 84 75 76 78 81 80 78 79 79 76 78
93 92 89 86 86 87 89 91 91 90 93 92 93 92 92 90 93 95 94 91 94 92 95 95 94 86 79 81 85 82 84 89 87 83 86 86 87 87 86 86 83 81 78
94 93 94 94 91 89 90 92 92 91 94 94 92 94 92 95 94 95 94 94 90 90 97 96 86 82 89 84 89 85 77 73 85 80 81 87 83 87 88 87 85 85 82
97 97 96 96 95 92 93 94 92 92 93 93 93 93 93 97 95 96 94 92 92 94 94 94 93 91 94 96 91 87 91 89 77 72 79 80 82 86 85 85 85 86 84
97 96 97 97 96 97 96 96 95 95 95 94 93 95 95 96 93 94 94 93 95 94 94 84 93 96 96 94 92 97 97 94 92 79 79 82 83 85 82 82 82 84 81
92 96 96 96 97 99 98 98 98 98 99 99 99 98 96 94 94 93 94 96 93 92 94 92 96 100 100 100 97 99 96 97 97 96 96 92 96 92 90 80 80 86 83
91 94 96 98 98 98 100 100 100 99 99 99 99 99 97 100 100 100 100 97 88 87 88 87 91 93 97 97 98 98 99 99 98 99 99 99 94 94 89 87 86 87 84
95 94 96 98 98 98 100 100 100 99 99 99 98 99 99 98 98 95 100 100 100 98 86 80 86 94 96 96 94 97 97 97 98 99 99 99 98 97 90 76 89 84 84
100 100 99 99 99 98 100 100 100 99 99 99 98 97 97 98 96 96 96 95 95 95 94 95 89 92 92 91 88 90 93 95 99 98 98 99 100 98 95 96 94 82 84
100 100 100 99 100 99 100 100 100 100 100 100 99 98 96 97 98 95 93 96 98 100 96 95 95 94 94 92 90 96 99 96 98 100 99 100 98 98 98 100 99 83 85
100 100 100 100 100 100 100 100 100 100 100 100 100 99 100 96 99 97 93 95 99 100 100 100 100 98 97 95 90 92 94 94 97 100 99 99 99 100 96 99 99 99 96

GFSMA_sfc_rhum_249.txt.gz
RH
98 99 99 100 100 100 99 98 98 97 95 92 86 79 72 72 68 68 83 90 87 84 85 76 76 81 89 95 94 93 88 83 81 77 79 80 78 77 76 75 75 76 75
98 98 98 99 99 99 99 98 98 97 96 90 83 78 73 71 72 72 78 90 86 85 86 87 85 86 88 90 90 87 83 78 72 74 76 75 74 73 74 74 74 73 72
97 96 97 98 98 98 97 97 96 95 95 86 83 76 75 73 76 74 72 79 86 88 88 90 90 89 87 84 82 81 76 72 71 69 72 70 72 71 70 69 69 69 70
92 94 94 95 96 98 95 96 96 96 94 91 88 85 79 79 78 83 74 74 78 78 88 90 90 89 88 84 78 71 69 70 67 70 70 68 65 65 66 68 70 71 71
87 88 86 89 95 93 93 87 94 91 94 93 90 88 88 89 84 77 86 77 79 80 79 88 90 92 89 84 74 67 66 66 68 69 65 63 63 65 68 70 71 71 70
83 85 85 91 90 89 90 91 91 92 90 84 73 76 88 90 94 94 86 82 77 81 86 90 95 96 89 82 77 65 63 68 69 66 64 62 63 66 68 71 71 70 70
81 80 79 90 87 84 82 86 86 90 87 94 93 95 95 96 96 97 89 92 89 87 94 94 94 94 87 84 78 65 65 69 68 66 62 61 63 66 69 71 71 70 70
79 76 74 80 84 82 86 87 83 95 87 96 95 96 95 91 97 95 98 95 95 91 94 94 95 88 84 86 82 74 69 71 69 64 60 60 63 67 70 71 71 71 69
75 75 74 74 78 80 82 83 83 80 84 98 90 88 98 97 96 97 97 97 96 98 97 96 93 84 80 82 82 83 83 80 69 62 58 60 64 68 69 69 70 70 68
77 78 73 75 78 79 79 84 82 82 82 92 98 86 93 92 95 94 94 96 98 98 98 98 95 81 74 80 87 90 86 82 72 61 60 61 64 66 66 68 69 69 69
78 76 77 76 79 80 78 79 84 89 84 77 93 98 89 97 94 94 94 94 92 94 97 98 91 82 73 80 94 90 85 80 74 66 64 63 64 63 65 66 69 70 69
84 82 79 77 76 78 82 82 84 85 81 83 77 84 86 89 84 94 95 93 94 88 86 84 83 80 82 84 84 87 83 81 77 75 66 64 64 65 66 68 70 71 71
88 86 85 84 81 80 78 82 88 85 85 81 84 78 81 77 77 90 93 92 91 91 86 85 81 82 86 86 86 85 83 83 81 78 70 68 67 67 69 70 71 72 72
84 82 88 84 86 84 84 84 87 90 85 88 82 83 79 83 81 89 85 89 94 92 90 85 93 91 93 92 85 85 79 85 84 78 76 75 72 70 72 73 73 74 73
92 93 90 91 88 89 88 87 91 89 91 89 90 86 86 85 86 90 86 82 86 93 91 92 96 93 93 92 88 80 81 85 87 86 82 81 73 73 75 75 75 77 74
95 92 93 95 93 92 92 94 93 92 93 95 94 94 93 89 90 95 94 88 89 91 94 90 94 96 91 85 86 82 76 85 86 79 76 77 80 79 78 78 80 78 76
98 98 96 94 92 93 94 94 94 92 95 95 96 96 93 91 93 93 97 93 94 93 95 98 98 97 96 94 93 90 88 88 88 79 82 83 86 86 86 85 82 79 80
97 98 97 96 95 94 93 94 94 93 95 96 93 95 94 94 96 93 97 96 96 93 93 98 94 99 98 97 95 91 85 72 81 80 78 82 83 87 86 86 85 83 80
94 96 97 98 98 98 97 96 94 94 94 94 92 94 92 95 97 97 97 98 97 96 95 96 99 99 100 98 97 92 86 84 77 73 80 82 84 89 86 86 81 79 80
88 92 96 98 98 98 98 98 98 97 96 94 94 94 94 95 96 96 99 98 98 98 98 98 99 98 99 98 94 95 98 94 91 78 78 84 85 81 80 80 82 83 83
88 89 90 94 96 97 99 98 99 99 98 97 95 96 95 96 100 98 98 98 98 98 99 98 99 100 100 100 97 99 97 98 97 94 93 93 97 89 87 79 81 87 84
89 89 90 94 96 98 100 100 100 99 99 99 99 99 99 100 100 100 100 100 96 97 98 96 96 97 93 93 98 95 99 98 98 99 97 99 94 90 87 87 86 85 82
97 93 94 98 98 98 100 100 100 98 99 99 99 99 99 99 100 98 100 100 100 100 100 92 93 92 95 93 90 96 97 96 98 98 97 99 98 96 90 86 90 81 82
99 99 99 98 99 98 99 100 100 99 99 99 99 98 99 99 98 98 99 99 98 98 96 96 93 95 94 94 90 92 93 98 98 98 98 99 99 97 95 98 85 80 83
100 100 99 99 100 99 98 100 100 99 100 100 100 99 99 99 100 100 98 99 99 100 97 96 95 94 93 92 91 93 98 97 99 99 98 98 97 98 98 99 97 81 84
100 100 100 100 99 99 98 100 100 100 99 100 99 99 100 99 100 100 98 98 99 100 100 100 100 98 97 96 94 91 95 97 98 99 99 98 98 99 98 99 99 95 95

GFSMA_sfc_rhum_255.txt.gz
RH
74 68 68 76 69 64 60 63 61 62 65 65 62 58 51 49 49 39 38 86 93 89 87 83 84 88 89 92 92 91 91 90 89 85 82 79 77 74 72 72 71 70 69
73 68 69 77 74 64 59 57 58 58 59 59 59 58 53 47 49 50 41 46 88 93 90 88 84 83 84 91 94 92 91 91 85 80 80 77 75 73 70 68 66 67 68
76 72 66 66 64 63 67 65 65 61 56 55 56 53 52 53 46 50 48 47 48 94 91 87 86 88 86 87 93 95 92 90 83 79 77 75 73 70 66 65 67 69 70
75 74 66 65 62 67 64 62 60 59 57 53 51 48 47 48 50 51 49 51 46 44 77 88 86 90 90 90 90 90 87 84 79 76 76 73 69 66 65 65 68 70 70
76 70 63 63 72 65 67 63 63 63 57 55 52 51 50 47 46 38 47 53 56 51 45 71 87 91 93 92 90 84 82 79 76 75 73 71 68 66 64 66 68 70 70
75 73 64 68 72 64 64 65 67 63 59 53 45 44 51 49 49 51 47 45 48 56 54 52 49 55 94 93 91 85 80 76 74 73 72 70 67 66 64 66 69 70 71
75 74 64 69 71 65 64 69 67 70 63 64 62 56 52 54 56 51 50 49 50 53 57 56 52 49 56 93 92 88 78 76 74 72 71 70 68 67 66 68 69 70 70
74 71 69 64 68 62 70 71 72 65 64 65 62 60 60 49 60 56 51 53 57 51 54 59 58 58 57 57 70 88 81 77 74 72 72 71 68 66 66 67 68 68 68
72 74 70 66 68 69 66 72 72 70 60 67 68 57 68 61 64 60 66 60 62 61 58 58 63 63 64 60 72 79 88 85 78 77 73 71 68 66 66 66 66 67 68
71 70 72 72 74 71 70 69 64 67 67 62 71 63 63 64 56 58 59 65 70 70 69 63 64 67 67 66 75 79 86 86 86 81 76 70 68 67 66 65 64 66 69
71 68 72 73 72 68 68 71 71 74 65 60 62 64 72 67 70 68 66 55 60 60 62 67 64 67 70 70 69 76 86 86 89 85 79 71 68 66 66 65 65 66 68
76 72 68 72 70 67 68 71 73 73 72 71 62 66 65 62 67 74 72 70 68 70 80 78 80 78 74 71 76 83 88 89 90 87 82 76 68 65 65 65 65 66 67
72 76 78 76 68 70 68 71 73 75 74 73 76 69 75 74 70 74 83 78 83 82 82 74 74 76 75 73 73 88 91 93 92 90 86 81 72 67 66 66 66 67 68
68 72 80 81 80 75 74 72 73 72 75 87 84 87 85 83 86 84 86 91 96 90 76 77 77 79 83 86 83 95 82 95 92 88 86 81 82 81 72 68 69 70 71
76 79 81 83 78 75 74 75 80 82 86 89 90 89 88 90 92 90 90 86 89 92 83 82 86 86 85 86 89 84 81 93 87 86 86 89 91 85 76 73 73 74 74
79 83 84 90 92 91 88 85 96 94 93 96 97 96 96 94 94 96 95 94 94 93 93 76 77 80 81 82 87 86 82 90 86 84 94 91 87 84 79 76 76 76 75
97 94 90 83 72 77 86 92 93 91 94 89 89 94 94 89 92 94 95 95 95 93 94 83 82 82 83 83 86 83 87 92 90 96 91 89 87 82 81 82 80 79 76
93 96 98 91 78 80 85 89 86 84 84 84 80 84 76 76 90 89 91 92 95 94 96 92 93 95 89 86 91 91 91 92 94 95 95 88 87 84 85 83 84 80 79
83 86 87 88 90 96 96 97 99 96 94 85 84 87 82 82 90 92 96 97 95 95 96 97 99 95 98 98 98 98 98 98 95 94 91 88 87 89 86 85 81 85 83
74 65 70 76 86 90 90 90 92 97 99 98 94 90 90 91 95 96 97 96 95 97 98 99 100 100 99 99 98 98 100 98 98 85 88 88 90 90 89 86 89 83 81
74 68 64 64 66 72 79 88 87 88 93 96 98 98 98 98 100 98 97 95 97 98 99 98 100 100 100 100 99 100 99 99 99 96 96 98 92 92 87 85 87 88 89
69 78 73 72 66 66 100 100 95 82 85 89 94 96 96 100 99 100 100 100 100 98 98 99 100 100 98 96 100 99 99 100 100 99 98 99 92 92 91 93 91 86 80
74 72 71 73 72 70 98 96 97 80 77 78 85 92 94 97 99 95 99 100 100 100 100 97 99 98 99 96 96 99 97 94 97 99 93 99 97 97 95 94 80 78 79
75 75 73 70 74 75 95 97 96 80 78 81 91 90 93 94 94 96 97 99 98 97 98 99 97 95 94 92 90 90 91 98 98 99 94 100 100 100 99 93 76 78 80
100 99 79 80 80 78 97 99 97 86 87 99 90 93 91 87 99 100 99 100 99 100 96 98 98 97 96 94 91 95 100 100 100 100 100 100 100 100 100 100 77 78 82
93 85 94 86 90 88 93 99 96 88 90 85 79 89 99 96 100 100 98 98 100 100 100 100 100 100 98 95 91 87 92 94 100 100 100 99 99 100 100 100 100 91 87

GFSMA_sfc_rhum_261.txt.gz
RH
50 41 38 34 37 36 38 40 39 41 44 43 42 42 40 42 39 31 28 84 86 83 83 78 82 85 87 90 89 89 90 90 90 90 91 90 86 80 74 70 68 66 65
51 40 38 34 33 32 34 36 38 36 39 40 40 42 42 38 37 37 29 42 85 87 85 85 84 86 88 90 92 91 90 91 91 91 92 90 87 80 75 72 67 65 66
52 49 38 37 34 35 40 40 40 39 37 37 38 36 38 41 36 34 30 30 39 89 88 88 88 90 91 90 92 94 92 92 93 92 92 90 87 82 77 72 67 66 68
49 54 39 40 37 38 36 36 37 36 37 34 37 33 33 37 38 40 34 32 28 26 76 88 88 88 90 89 88 90 93 94 94 93 92 90 87 83 78 72 68 68 68
52 49 42 40 48 37 41 41 41 41 39 37 32 31 33 30 31 25 31 35 38 34 30 68 88 90 89 86 86 87 88 91 94 93 92 90 87 83 79 72 70 69 69
53 54 43 47 46 41 41 40 47 40 38 34 27 27 33 31 30 30 29 27 30 37 40 44 52 59 90 86 83 85 85 88 90 91 90 88 86 83 80 74 71 70 70
56 58 47 48 48 46 46 51 47 51 41 42 38 36 35 38 41 33 29 28 30 31 38 40 42 39 50 84 80 81 82 86 87 89 89 87 86 84 80 78 72 70 70
57 56 56 46 50 45 54 53 55 49 46 44 44 40 40 34 34 41 38 36 40 31 32 38 43 48 48 44 61 80 83 87 87 88 88 87 86 84 81 76 72 70 70
54 58 57 54 49 52 49 58 57 59 47 45 51 42 38 40 34 30 48 42 47 40 42 42 43 47 51 50 59 73 88 92 90 88 88 88 87 85 82 76 72 71 71
53 52 57 57 59 48 54 54 49 55 58 47 46 44 55 52 44 41 37 47 49 49 55 48 46 48 50 51 64 72 87 93 95 92 89 89 87 87 83 77 73 72 70
54 52 56 61 62 56 55 58 57 62 52 53 43 50 58 53 58 56 51 40 48 49 47 54 55 52 51 58 59 66 82 94 96 95 92 89 88 88 85 78 75 75 72
48 56 53 59 62 61 61 59 62 63 64 57 51 46 45 51 54 54 58 59 55 52 52 67 70 59 55 58 60 77 89 96 95 96 95 93 90 88 88 80 77 76 72
62 61 64 63 60 62 61 61 65 66 66 65 64 54 48 46 46 48 52 55 58 60 64 71 78 70 61 62 64 82 85 96 97 97 96 95 93 93 90 84 82 79 77
62 66 68 67 66 65 65 67 65 65 68 69 71 66 56 52 52 57 58 68 79 79 79 78 81 80 72 65 72 92 78 95 100 98 98 97 96 97 94 92 87 91 91
50 59 66 69 67 66 65 67 66 68 67 71 74 75 67 61 63 66 72 75 85 92 84 73 75 79 82 80 81 82 81 92 100 100 100 99 98 96 94 93 91 90 86
81 90 70 66 69 68 71 71 69 68 68 68 67 72 72 67 69 72 80 78 83 86 88 65 63 71 86 92 90 87 85 96 100 100 100 100 98 96 95 95 93 83 80
79 82 89 90 79 73 72 74 73 70 71 69 70 72 74 74 79 79 84 82 89 85 88 70 66 62 78 91 93 87 87 84 90 99 100 100 99 98 97 94 90 86 81
82 83 83 86 91 88 90 93 92 80 75 75 78 79 81 81 87 86 82 85 83 80 80 74 69 70 76 82 91 91 95 90 95 97 98 98 98 97 95 92 92 90 87
71 78 79 84 84 87 90 94 95 96 97 92 85 76 74 76 83 82 80 79 79 78 80 85 83 78 88 94 98 98 99 98 99 97 98 98 97 95 93 92 92 91 86
71 70 72 76 79 78 76 84 86 93 95 96 91 91 83 74 76 77 78 80 77 80 81 86 90 98 100 99 99 100 100 99 99 95 95 95 93 94 94 93 92 90 88
69 68 71 70 73 70 73 83 78 84 85 90 95 95 96 99 100 99 90 79 78 82 84 90 94 100 100 100 100 100 100 100 100 99 99 98 98 97 95 92 90 89 85
73 71 70 70 71 61 98 97 91 76 69 71 72 72 81 99 100 100 100 100 100 99 98 95 92 99 99 98 100 100 100 100 100 99 99 100 97 98 96 95 92 88 84
80 78 75 74 75 72 95 94 93 71 64 60 57 51 47 41 84 65 90 99 99 100 100 99 98 97 98 93 97 100 99 99 99 99 97 100 98 99 97 95 91 85 83
82 81 80 77 73 66 81 91 97 77 68 64 62 59 58 54 57 71 65 63 70 84 95 94 97 97 99 97 93 95 97 99 100 100 97 99 100 100 98 98 90 82 80
90 94 71 70 74 73 82 82 89 75 77 82 72 65 69 66 88 100 75 74 86 99 96 96 98 98 99 100 98 99 100 100 100 100 100 100 100 99 100 100 97 85 82
70 72 69 72 70 67 73 86 87 69 72 74 69 65 77 75 81 100 91 82 88 100 100 100 100 100 100 100 98 96 99 99 100 100 100 99 98 98 100 100 100 100 97

GFSMA_sfc_rhum_267.txt.gz
RH
82 84 89 92 92 96 94 94 92 86 86 80 77 72 69 67 62 70 84 92 91 90 89 85 85 85 88 89 90 90 90 90 90 91 91 92 92 94 92 89 84 80 74
83 77 82 80 82 84 80 84 80 84 81 80 74 70 67 65 64 66 76 86 92 90 90 89 88 89 88 91 91 91 90 90 91 92 93 93 93 94 93 90 86 82 75
86 74 74 74 72 77 74 78 74 78 80 73 73 68 68 64 65 64 65 76 83 91 90 89 90 90 91 92 93 93 92 92 92 92 93 94 95 95 93 91 88 84 78
84 78 72 78 69 70 66 66 78 71 81 71 73 73 71 70 66 65 61 62 66 62 84 89 90 90 90 92 93 94 94 94 93 92 93 94 95 95 94 92 89 85 82
79 75 76 74 74 74 75 64 76 77 75 78 74 73 73 73 66 52 63 59 58 61 63 78 88 91 91 90 91 92 93 95 94 92 93 94 95 96 95 93 90 86 83
71 84 74 80 77 77 76 78 75 78 76 75 53 52 64 69 68 71 60 53 56 54 54 64 77 79 90 91 88 88 87 88 90 91 92 94 94 95 95 94 91 88 84
70 72 82 77 85 73 71 73 76 75 79 77 77 76 74 70 68 64 57 56 60 52 55 51 61 75 75 90 89 88 84 85 84 87 91 93 94 95 96 94 92 89 85
69 68 69 81 77 83 77 75 77 81 83 81 70 81 79 69 69 63 62 54 59 58 53 54 52 65 67 72 78 86 86 84 83 83 87 94 96 96 96 95 93 90 86
70 69 70 67 78 79 76 79 75 69 73 83 76 72 86 79 75 71 56 54 49 60 56 60 58 59 66 71 77 80 89 89 86 84 84 90 95 96 96 95 93 91 88
68 69 72 70 68 76 77 72 74 76 80 67 87 70 74 80 84 86 84 74 65 58 61 62 60 63 56 64 74 82 86 90 90 86 84 85 91 95 96 95 94 92 90
72 68 71 73 72 71 80 76 68 76 76 66 74 86 75 66 90 88 76 80 90 82 71 63 58 56 67 68 66 76 88 87 88 86 86 86 90 94 96 96 95 93 90
70 73 71 75 73 73 72 78 79 74 72 74 66 75 82 77 69 89 86 78 64 72 79 77 81 83 78 83 82 82 88 89 92 90 89 92 94 94 95 96 96 94 92
95 92 86 82 78 76 74 72 77 76 74 72 76 71 66 71 77 68 73 72 86 80 86 93 74 73 72 88 89 90 91 93 97 94 93 94 95 96 97 97 96 94 93
95 90 96 93 86 79 77 78 74 75 75 80 71 75 73 69 72 75 79 79 94 94 95 78 95 94 96 95 94 98 95 99 100 97 97 97 97 97 98 98 97 97 95
94 92 91 90 93 94 91 85 85 82 76 79 82 82 76 77 83 77 90 83 82 85 76 84 94 93 95 95 95 93 95 96 99 100 100 100 98 98 98 99 99 98 96
92 94 94 93 90 88 92 96 92 90 93 91 87 92 92 88 90 92 88 86 91 79 81 66 86 93 94 96 96 95 95 99 99 100 100 100 100 100 99 98 99 99 96
91 92 95 93 93 92 90 90 92 91 96 96 95 94 86 81 82 88 89 88 82 84 87 75 93 93 92 94 96 97 98 97 100 100 100 100 100 100 100 100 98 96 94
86 90 91 94 93 95 94 94 90 89 92 93 94 95 90 88 90 88 90 89 89 85 90 87 82 96 94 95 96 98 99 99 99 100 100 100 100 100 99 98 97 96 94
82 82 82 90 91 94 95 94 92 89 89 90 93 95 93 94 97 98 95 93 90 88 91 92 92 97 97 99 100 99 99 99 99 98 100 100 99 98 97 97 96 95 93
78 83 81 82 82 82 90 90 88 91 90 92 93 95 95 95 94 95 98 99 98 98 98 99 98 99 99 100 99 100 100 99 100 98 98 99 98 97 96 96 94 93 91
76 82 85 81 81 77 82 88 87 85 85 87 90 86 91 97 100 100 98 97 95 97 99 99 100 100 100 100 100 100 100 100 100 99 99 99 98 98 97 94 92 91 88
79 81 82 82 85 73 90 89 84 78 76 77 84 82 82 86 88 100 100 100 100 99 98 100 99 100 99 100 100 100 100 100 100 100 100 100 99 99 98 97 92 88 85
87 85 82 82 80 81 88 87 90 80 79 81 80 80 75 67 88 84 91 99 100 100 100 99 99 99 100 99 100 100 100 99 100 100 98 100 99 99 99 95 90 86 84
82 84 82 81 81 76 85 89 92 82 85 83 84 84 84 81 82 95 88 85 85 91 99 99 99 100 99 99 99 99 99 100 100 100 97 99 100 100 99 99 90 87 85
91 87 81 83 85 82 84 88 88 85 84 90 85 84 84 90 99 98 93 94 92 96 100 100 99 99 100 100 100 100 100 100 100 100 100 99 100 99 99 100 99 88 88
78 73 74 78 78 80 82 85 82 83 87 87 83 77 86 95 99 94 93 96 99 100 100 99 100 100 100 100 100 98 99 100 100 100 100 99 99 98 100 100 99 100 99

GFSMA_sfc_rhum_270.txt.gz
RH
97 98 98 99 99 99 98 99 98 97 97 94 90 84 78 76 76 73 88 92 92 92 89 83 80 82 86 88 89 89 89 89 90 90 92 92 92 94 95 94 91 87 83
89 88 94 97 98 97 98 97 96 97 94 92 88 83 78 77 72 74 80 86 91 92 92 90 87 86 86 88 89 90 90 90 90 91 92 93 93 94 95 95 92 89 85
89 83 86 90 91 91 93 95 95 96 96 88 84 81 75 73 71 69 76 80 85 94 93 92 92 92 91 90 91 91 91 91 91 91 92 93 94 94 95 96 94 91 87
85 86 80 83 84 87 86 84 87 88 86 87 81 78 76 76 72 70 71 73 78 72 87 92 92 92 93 92 92 92 92 93 92 92 92 93 94 94 95 96 95 92 89
79 79 78 78 82 79 82 81 83 80 83 79 80 77 77 79 74 60 67 67 72 69 69 79 89 90 92 91 92 92 92 93 94 93 92 92 93 94 95 96 95 94 90
76 82 78 78 78 75 77 80 75 81 85 72 62 64 73 72 72 78 65 59 62 64 64 63 75 79 90 89 88 88 88 90 92 94 92 91 92 94 95 96 95 94 92
75 75 78 78 76 75 72 74 72 81 76 87 85 84 82 76 74 74 66 70 66 60 63 61 61 68 68 88 88 86 84 85 86 89 92 92 92 94 95 96 96 95 94
73 72 72 78 73 78 83 79 76 87 75 85 80 86 83 71 73 62 67 63 59 56 59 57 58 60 65 67 78 87 86 85 84 86 88 91 93 95 95 96 96 96 95
74 72 70 72 80 73 78 76 75 72 74 91 80 75 93 84 80 73 63 55 59 69 59 55 60 56 56 62 73 80 88 90 88 86 87 89 92 95 96 96 96 97 96
77 73 70 72 71 76 76 73 75 68 65 69 93 74 78 77 80 83 87 86 71 64 64 60 55 58 58 64 70 77 83 88 89 87 87 89 90 92 96 95 95 96 97
82 75 75 74 73 73 77 78 72 80 71 61 69 91 76 70 91 85 75 78 84 86 72 68 61 63 61 64 66 76 88 87 88 87 88 89 90 94 96 97 93 94 97
93 91 88 81 75 72 72 78 78 73 73 71 63 66 67 67 69 77 81 66 68 60 84 86 78 68 69 68 73 78 87 90 90 90 90 89 90 94 93 93 96 94 96
94 97 96 95 92 83 73 71 75 77 77 75 71 69 70 65 64 70 70 68 81 86 85 90 77 73 72 80 82 88 90 94 94 94 95 96 95 95 95 96 96 96 95
95 95 96 97 96 93 95 88 84 84 81 81 74 73 70 72 71 76 77 78 90 94 96 86 94 86 86 93 87 94 96 100 100 100 100 98 98 98 98 98 97 97 97
88 91 94 94 96 96 97 96 96 93 91 88 84 79 77 74 77 76 73 76 77 83 78 85 95 91 96 96 97 96 96 100 100 100 100 100 99 98 98 98 99 98 98
87 89 90 91 92 94 95 97 97 95 94 96 91 92 86 80 84 85 81 78 80 80 85 70 68 90 93 96 97 95 95 100 100 100 100 100 100 99 98 99 99 99 98
84 83 86 88 88 91 92 94 96 96 95 95 94 95 93 94 92 89 92 88 87 89 90 79 78 92 94 95 96 98 100 99 100 100 100 100 100 100 100 100 100 98 96
81 85 84 84 83 88 90 92 93 93 96 96 95 95 96 94 96 97 96 95 92 89 91 89 82 94 96 96 96 99 100 100 99 100 100 100 100 100 100 99 98 97 96
79 85 85 86 87 87 88 88 89 90 92 94 95 95 95 96 96 96 96 98 96 94 95 94 91 92 96 99 100 100 99 99 100 99 100 100 100 99 99 98 97 96 95
83 81 84 82 88 88 87 85 82 86 89 89 92 93 94 94 97 98 96 95 95 97 97 97 98 97 99 100 99 100 100 100 100 100 99 100 99 98 98 97 96 95 93
82 80 83 81 80 76 82 86 88 87 87 86 89 89 92 92 95 99 98 98 99 96 97 97 98 100 100 100 100 100 100 100 100 99 100 99 99 98 98 96 94 92 91
78 85 81 82 83 72 87 88 89 81 84 85 86 84 85 89 89 95 100 100 100 99 99 98 98 99 99 100 100 100 100 100 100 100 99 100 99 99 99 99 94 91 88
81 84 84 85 86 86 86 86 89 84 85 84 83 86 83 81 94 90 92 94 97 100 100 99 98 99 100 99 100 100 99 99 100 100 98 100 99 100 99 98 92 89 86
83 87 86 78 79 76 84 88 88 84 87 83 83 85 81 81 90 90 83 88 91 90 98 99 99 99 99 99 99 99 100 100 100 100 98 100 100 100 100 99 91 88 85
90 86 70 72 74 72 81 87 88 85 86 91 85 84 83 83 93 94 87 92 93 98 97 100 99 100 100 100 100 100 100 100 100 100 100 100 100 100 99 100 99 88 86
83 72 74 70 70 70 70 71 82 80 84 85 83 81 87 88 89 91 91 93 94 100 100 99 99 99 100 99 99 99 100 100 100 100 100 99 99 99 100 100 100 100 99

GFSMA_sfc_rhum_273.txt.gz
RH
99 99 99 99 99 100 99 99 99 98 97 96 95 93 87 86 84 82 84 91 90 87 87 85 83 82 85 88 88 89 89 89 89 89 90 91 91 92 93 95 96 93 89
98 98 99 99 99 99 99 99 98 98 97 97 92 91 85 84 84 81 82 90 93 88 89 90 87 86 85 86 88 89 89 89 90 90 90 92 92 92 93 94 96 95 92
96 94 96 98 98 99 98 99 98 98 98 94 92 87 84 80 76 78 79 84 88 94 93 93 92 90 89 88 89 89 89 90 90 90 91 92 93 93 94 95 96 96 94
90 95 90 92 92 98 97 97 97 97 97 95 87 85 80 83 75 75 76 77 81 76 88 92 92 93 94 93 92 92 90 90 91 90 91 92 93 94 94 95 96 96 95
86 85 86 85 94 92 94 92 94 90 89 89 88 86 89 85 77 66 72 73 77 77 76 82 92 92 92 93 93 92 91 92 92 91 91 92 93 94 95 95 96 96 96
84 85 80 87 89 87 90 96 89 92 86 80 72 71 79 76 75 76 71 66 72 71 70 71 78 81 92 91 91 90 90 89 92 93 93 93 94 94 95 96 96 96 96
82 83 80 83 86 82 81 86 86 87 88 93 93 84 79 82 82 74 72 70 70 65 70 69 67 67 69 87 87 87 84 85 86 90 93 95 96 95 95 96 96 96 96
82 81 79 78 85 82 82 83 83 88 85 93 80 94 83 77 77 67 65 66 67 62 64 66 65 63 63 64 76 85 84 84 85 86 89 93 96 96 95 96 95 96 96
79 81 78 78 80 82 80 82 83 82 77 90 82 78 92 90 86 75 69 59 61 68 64 59 60 61 60 63 73 79 87 89 87 86 87 90 93 95 96 95 96 96 96
88 85 81 80 78 83 78 80 79 79 79 76 96 78 68 82 76 74 84 88 83 70 70 68 62 61 58 64 73 77 81 88 88 86 86 88 91 93 94 95 97 96 95
88 83 87 89 87 84 83 80 77 87 78 74 71 80 87 75 91 83 68 56 76 86 81 74 68 65 59 64 67 71 83 85 87 86 85 86 88 91 93 94 97 96 94
94 92 91 95 94 92 93 92 87 84 81 78 73 70 74 81 65 75 80 69 66 59 68 88 87 77 73 74 70 74 83 87 88 86 86 89 91 92 93 93 94 96 91
95 95 95 96 96 96 93 93 95 96 93 96 90 86 78 73 66 65 73 73 71 66 81 85 73 68 74 80 75 82 83 87 89 90 91 91 91 92 94 95 95 95 96
96 95 94 93 93 93 95 97 97 97 97 97 95 95 92 90 87 78 76 76 76 74 74 74 91 86 79 90 87 89 87 94 92 94 94 94 96 98 97 97 96 96 97
87 93 95 92 93 92 94 96 97 97 97 98 98 96 94 94 93 91 90 82 83 85 77 66 81 88 88 95 94 94 95 100 100 100 100 100 99 99 99 99 99 97 96
84 87 89 92 91 91 92 94 96 95 95 97 97 98 98 96 95 94 94 90 92 92 90 69 66 88 92 94 95 97 95 100 100 100 100 100 100 100 99 99 99 99 99
87 89 87 86 86 89 88 90 91 90 92 94 94 96 95 97 96 96 96 95 93 90 93 85 78 82 91 89 92 98 99 99 100 100 100 100 100 100 100 100 100 100 100
85 86 85 85 88 89 86 86 86 85 88 91 92 94 93 90 96 98 98 96 96 96 98 96 89 92 90 93 91 95 99 99 99 99 100 100 100 100 100 100 100 98 97
81 82 84 86 84 87 81 85 86 86 88 88 88 90 90 93 95 95 96 97 98 96 97 97 93 93 94 100 100 99 99 99 99 99 100 100 100 99 99 99 98 97 97
79 82 81 84 86 83 83 83 85 86 88 86 89 89 89 92 92 93 94 95 97 98 96 97 99 97 98 99 100 99 100 100 99 99 99 99 99 99 99 98 97 96 96
78 80 83 85 86 80 78 88 88 87 87 87 87 86 88 91 94 96 94 95 97 96 98 98 98 100 100 100 100 100 100 100 100 99 100 99 99 99 99 98 97 96 95
81 85 88 89 86 75 85 85 89 89 85 86 87 83 85 86 88 92 90 90 98 99 98 98 97 96 93 99 100 100 100 100 100 100 100 100 99 100 99 99 97 96 93
88 89 92 71 73 72 75 81 87 87 87 89 86 84 80 68 83 87 84 85 88 95 100 99 97 95 97 99 99 99 100 100 100 100 98 100 99 100 100 99 96 95 93
88 92 73 70 70 66 78 77 78 81 82 84 86 88 86 85 84 91 87 83 83 85 90 94 98 98 98 98 98 99 100 100 100 100 98 100 100 100 100 99 93 92 90
84 79 67 71 68 69 78 83 81 76 82 87 84 84 84 85 86 84 81 85 82 85 83 89 98 99 99 99 100 100 100 100 100 100 100 100 100 99 99 100 99 91 90
67 69 68 68 76 68 72 78 74 77 87 89 87 84 85 90 91 88 90 93 96 91 94 94 96 98 99 98 99 99 100 100 100 100 100 100 99 99 100 100 100 100 99

GFSMA_sfc_rhum_276.txt.gz
RH
99 99 100 99 92 93 96 100 99 98 97 95 94 94 91 88 86 82 83 87 90 88 84 82 85 87 87 87 88 88 88 88 88 88 89 90 90 91 92 94 95 96 95
98 99 99 99 96 97 97 99 99 99 98 96 94 92 87 86 85 85 81 82 91 92 88 84 85 86 87 87 88 89 88 88 88 88 89 91 92 92 92 94 95 96 96
98 97 97 98 97 99 99 99 99 99 99 95 96 92 90 86 82 82 82 82 82 95 93 89 89 89 89 88 88 90 89 89 89 89 89 91 92 93 93 94 94 95 96
97 98 96 95 95 99 99 99 99 99 98 98 92 88 88 88 82 83 81 80 79 74 87 92 91 91 93 92 90 90 91 90 90 89 89 90 92 93 94 94 94 95 95
94 95 93 90 97 97 98 96 99 96 95 96 94 90 93 91 80 70 74 76 76 77 72 81 91 91 91 92 92 91 90 91 92 91 90 91 92 93 94 94 94 95 95
91 95 88 91 95 93 96 98 94 97 92 90 78 73 87 84 84 82 76 69 70 77 75 74 74 79 92 90 89 89 89 90 91 92 93 92 92 93 93 94 94 94 94
90 90 88 86 95 90 89 94 95 95 95 95 93 92 86 81 82 77 74 74 72 70 75 74 72 70 68 88 88 87 84 86 87 88 91 94 94 95 95 94 94 94 94
88 90 87 84 87 89 91 94 92 94 92 94 92 94 90 76 85 78 73 71 72 67 67 70 72 70 68 67 75 85 84 83 84 85 88 91 96 96 96 96 96 95 94
87 87 89 89 85 92 86 89 90 88 86 94 85 83 91 90 86 77 78 79 76 78 74 70 67 69 68 68 72 78 86 87 84 83 85 88 92 95 96 97 96 96 96
86 84 88 91 95 88 90 86 83 82 83 83 97 81 74 81 77 74 75 78 80 76 79 78 74 71 69 66 73 75 79 87 86 83 83 86 89 91 93 95 96 96 96
89 87 89 91 92 94 95 91 88 88 84 84 82 93 92 84 89 82 81 69 68 75 80 80 78 76 71 70 69 76 82 84 84 82 82 83 85 89 92 93 94 95 96
91 90 92 93 92 93 94 96 97 95 93 91 90 89 86 86 87 88 89 80 75 66 67 77 81 74 72 78 73 76 80 84 87 84 82 83 85 87 90 93 94 94 96
92 94 93 94 94 94 95 96 96 97 98 97 97 97 96 93 94 92 91 85 81 72 71 79 78 72 64 68 72 83 84 85 84 86 86 87 86 88 90 93 93 93 94
92 90 92 90 94 92 94 96 97 96 97 98 98 97 96 95 93 91 93 96 96 88 78 76 70 80 76 73 73 86 83 89 89 89 88 89 90 91 93 94 95 96 96
87 91 90 92 89 90 92 93 95 96 96 97 97 97 97 96 98 97 96 95 96 96 88 85 81 78 81 83 82 84 86 92 95 94 92 92 92 93 94 98 98 99 98
88 90 88 90 90 87 86 88 92 90 91 95 95 95 95 95 96 97 97 95 95 95 95 81 79 82 81 90 87 89 84 96 100 100 100 100 98 97 99 100 100 100 99
86 88 85 89 85 88 84 87 87 84 86 89 89 90 90 90 94 95 97 98 98 98 98 88 83 84 86 90 91 85 89 89 94 100 100 100 100 100 100 100 100 100 100
85 86 85 88 85 85 85 86 88 86 86 90 89 91 89 87 92 92 94 94 95 95 98 96 88 88 87 87 94 94 93 98 99 100 100 100 100 100 100 100 100 100 100
83 85 85 89 88 89 84 87 87 87 87 88 89 91 91 91 92 94 94 94 95 92 96 96 93 88 90 88 90 97 99 99 100 99 100 100 100 100 100 100 100 100 100
83 83 86 90 89 88 83 84 86 88 89 86 89 89 84 91 94 93 90 91 89 96 96 93 93 95 92 91 96 96 100 100 100 99 100 100 100 100 99 99 99 99 99
84 87 88 89 86 75 71 83 86 87 86 86 88 84 84 86 86 90 89 90 90 94 97 97 97 97 96 96 97 99 100 100 100 100 99 99 99 98 99 98 98 97 98
89 90 91 75 71 63 72 72 71 71 83 82 85 86 84 82 83 88 89 90 92 94 96 97 97 98 96 98 98 99 100 100 100 100 100 100 99 100 99 99 97 97 97
94 93 79 68 67 65 74 76 77 66 83 84 82 82 78 68 86 84 84 84 82 85 92 98 96 97 97 98 98 98 98 99 99 100 98 100 100 100 100 99 97 97 96
80 70 69 69 71 69 68 75 80 66 77 83 85 84 85 83 82 86 81 82 80 78 78 78 87 89 92 96 98 98 98 99 100 100 99 100 100 100 100 99 95 95 94
75 76 64 66 69 77 80 80 78 63 79 88 86 80 84 85 85 87 91 90 90 91 80 82 84 87 91 98 98 99 100 100 100 100 100 100 100 99 100 100 99 94 94
64 69 71 70 69 66 65 74 72 81 90 87 76 72 77 81 82 82 85 88 92 93 93 92 91 87 89 92 96 98 99 99 100 100 100 100 100 99 100 100 100 100 100